BAW243 EGLL-MMMX

Flight info

Callsign BAW243
Flight time N/A
Altitude 34000
Route ULTIB T420 TNT UL28 PENIL M144 BAGSO DCT RINUS DCT MALOT/M083F360 NATE RIKAL/N0480F360 DCT YBC/N0478F380 DCT YEE DCT CRL DCT BWG DCT MEI/N0478F400 DCT TBD M345 AXEXO UM345 PAZ UT154 ENAGA ENAGA3B
Aircraft B772/H-SDE2E3FGHIJ5LORVWXY/LB1D1

Departure

Time 2026-05-05 15:50
Airport London Heathrow Airport (EGLL)

Arrival

Time N/A
Airport Mexico City Benito Juárez International Airport (MMMX)
Time Latitude Longitude Altitude Speed Heading
2026-05-05 15:23 51.47182 -0.48231 94 ft 0 kts 89°
2026-05-05 15:29 51.47248 -0.48231 90 ft 0 kts 90°
2026-05-05 15:36 51.47248 -0.48235 90 ft 2 kts 90°
2026-05-05 15:37 51.47248 -0.48264 94 ft 3 kts 90°
2026-05-05 15:37 51.47248 -0.48296 90 ft 3 kts 90°
2026-05-05 15:37 51.47249 -0.48325 94 ft 3 kts 116°
2026-05-05 15:37 51.47260 -0.48347 90 ft 3 kts 154°
2026-05-05 15:38 51.47279 -0.48357 93 ft 3 kts 175°
2026-05-05 15:38 51.47291 -0.48358 91 ft 2 kts 180°
2026-05-05 15:38 51.47309 -0.48358 95 ft 3 kts 180°
2026-05-05 15:38 51.47318 -0.48358 90 ft 0 kts 180°
2026-05-05 15:41 51.47285 -0.48367 90 ft 0 kts 202°
2026-05-05 15:42 51.47282 -0.48371 90 ft 5 kts 213°
2026-05-05 15:42 51.47243 -0.48460 91 ft 10 kts 213°
2026-05-05 15:42 51.47193 -0.48471 90 ft 4 kts 180°
2026-05-05 15:43 51.47116 -0.48472 93 ft 16 kts 180°
2026-05-05 15:43 51.47007 -0.48471 90 ft 16 kts 179°
2026-05-05 15:43 51.46898 -0.48470 94 ft 15 kts 180°
2026-05-05 15:43 51.46836 -0.48469 92 ft 2 kts 179°
2026-05-05 15:44 51.46835 -0.48469 90 ft 0 kts 179°
2026-05-05 15:44 51.46829 -0.48469 90 ft 0 kts 179°
2026-05-05 15:45 51.46803 -0.48468 94 ft 9 kts 179°
2026-05-05 15:45 51.46765 -0.48478 93 ft 11 kts 204°
2026-05-05 15:45 51.46742 -0.48635 92 ft 23 kts 269°
2026-05-05 15:46 51.46695 -0.48747 94 ft 10 kts 184°
2026-05-05 15:46 51.46627 -0.48755 94 ft 10 kts 193°
2026-05-05 15:46 51.46604 -0.48766 90 ft 0 kts 198°
2026-05-05 15:47 51.46591 -0.48773 91 ft 8 kts 198°
2026-05-05 15:47 51.46490 -0.48747 93 ft 10 kts 137°
2026-05-05 15:47 51.46479 -0.48685 90 ft 0 kts 89°
2026-05-05 15:49 51.46480 -0.48521 91 ft 44 kts 90°
2026-05-05 15:49 51.46482 -0.47676 91 ft 108 kts 89°
2026-05-05 15:50 51.46486 -0.46160 95 ft 162 kts 89°
2026-05-05 15:50 51.46483 -0.44189 370 ft 184 kts 90°
2026-05-05 15:50 51.46519 -0.42037 770 ft 204 kts 77°
2026-05-05 15:50 51.47138 -0.39889 1015 ft 223 kts 56°
2026-05-05 15:51 51.48086 -0.37859 1674 ft 231 kts 50°
2026-05-05 15:51 51.49126 -0.35824 2275 ft 238 kts 49°
2026-05-05 15:51 51.50202 -0.33752 2582 ft 248 kts 48°
2026-05-05 15:51 51.51327 -0.31604 3127 ft 252 kts 47°
2026-05-05 15:52 51.52420 -0.29404 3601 ft 253 kts 57°
2026-05-05 15:52 51.53057 -0.26738 3957 ft 259 kts 71°
2026-05-05 15:52 51.53594 -0.23948 4460 ft 262 kts 69°
2026-05-05 15:52 51.54174 -0.21184 5037 ft 259 kts 67°
2026-05-05 15:53 51.55094 -0.18759 5345 ft 257 kts 37°
2026-05-05 15:53 51.56720 -0.17684 5736 ft 258 kts
2026-05-05 15:53 51.58449 -0.18378 6055 ft 262 kts 327°
2026-05-05 15:53 51.59768 -0.20385 6361 ft 265 kts 316°
2026-05-05 15:54 51.61139 -0.22401 6729 ft 268 kts 325°
2026-05-05 15:54 51.62655 -0.24150 7186 ft 269 kts 327°
2026-05-05 15:54 51.64166 -0.25799 7598 ft 271 kts 330°
2026-05-05 15:54 51.65784 -0.27378 8038 ft 273 kts 331°
2026-05-05 15:55 51.67422 -0.28934 8497 ft 275 kts 332°
2026-05-05 15:55 51.69084 -0.30508 8902 ft 278 kts 332°
2026-05-05 15:55 51.70768 -0.32108 9334 ft 281 kts 331°
2026-05-05 15:55 51.72447 -0.33711 9756 ft 283 kts 331°
2026-05-05 15:56 51.74141 -0.35335 10129 ft 287 kts 330°
2026-05-05 15:56 51.75903 -0.37032 10257 ft 302 kts 330°
2026-05-05 15:56 51.77139 -0.38226 10349 ft 313 kts 330°
2026-05-05 15:56 51.79064 -0.40086 10483 ft 330 kts 330°
2026-05-05 15:57 51.81089 -0.42046 10618 ft 348 kts 330°
2026-05-05 15:57 51.83183 -0.44080 10872 ft 362 kts 329°
2026-05-05 15:57 51.85370 -0.46209 11316 ft 372 kts 329°
2026-05-05 15:57 51.87598 -0.48382 11918 ft 377 kts 329°
2026-05-05 15:58 51.89855 -0.50584 12664 ft 379 kts 329°
2026-05-05 15:58 51.92122 -0.52795 13389 ft 382 kts 329°
2026-05-05 15:58 51.94411 -0.55043 14077 ft 386 kts 328°
2026-05-05 15:58 51.96718 -0.57311 14795 ft 390 kts 328°
2026-05-05 15:59 51.99053 -0.59604 15495 ft 394 kts 328°
2026-05-05 15:59 52.01409 -0.61915 16177 ft 397 kts 328°
2026-05-05 15:59 52.03774 -0.64240 16940 ft 398 kts 327°
2026-05-05 15:59 52.06158 -0.66586 17561 ft 403 kts 327°
2026-05-05 16:00 52.08570 -0.68953 18170 ft 407 kts 327°
2026-05-05 16:00 52.11004 -0.71360 18800 ft 411 kts 327°
2026-05-05 16:00 52.13458 -0.73793 19412 ft 415 kts 327°
2026-05-05 16:00 52.15940 -0.76253 19989 ft 420 kts 327°
2026-05-05 16:01 52.18451 -0.78744 20580 ft 424 kts 327°
2026-05-05 16:01 52.20984 -0.81251 21133 ft 428 kts 327°
2026-05-05 16:01 52.23540 -0.83789 21670 ft 432 kts 327°
2026-05-05 16:01 52.26110 -0.86345 22166 ft 436 kts 327°
2026-05-05 16:02 52.28719 -0.88944 22665 ft 440 kts 327°
2026-05-05 16:02 52.31340 -0.91562 23145 ft 443 kts 327°
2026-05-05 16:02 52.33977 -0.94199 23616 ft 447 kts 327°
2026-05-05 16:02 52.36641 -0.96861 24053 ft 450 kts 326°
2026-05-05 16:03 52.39329 -0.99552 24475 ft 454 kts 327°
2026-05-05 16:03 52.42029 -1.02257 24908 ft 457 kts 326°
2026-05-05 16:03 52.44750 -1.04989 25329 ft 459 kts 326°
2026-05-05 16:03 52.47473 -1.07730 25729 ft 462 kts 326°
2026-05-05 16:04 52.50219 -1.10499 26097 ft 464 kts 326°
2026-05-05 16:04 52.52978 -1.13282 26459 ft 467 kts 326°
2026-05-05 16:04 52.55713 -1.16045 26801 ft 469 kts 326°
2026-05-05 16:04 52.58504 -1.18870 27143 ft 471 kts 326°
2026-05-05 16:05 52.61298 -1.21704 27460 ft 473 kts 326°
2026-05-05 16:05 52.64105 -1.24555 27787 ft 475 kts 326°
2026-05-05 16:05 52.66930 -1.27428 28087 ft 478 kts 326°
2026-05-05 16:05 52.69763 -1.30313 28380 ft 479 kts 326°
2026-05-05 16:06 52.72602 -1.33208 28650 ft 481 kts 326°
2026-05-05 16:06 52.75454 -1.36123 28896 ft 483 kts 326°
2026-05-05 16:06 52.78313 -1.39051 29131 ft 485 kts 325°
2026-05-05 16:06 52.81180 -1.41988 29354 ft 486 kts 325°
2026-05-05 16:07 52.84060 -1.44945 29562 ft 487 kts 325°
2026-05-05 16:07 52.86945 -1.47910 29801 ft 488 kts 325°
2026-05-05 16:07 52.89831 -1.50881 30069 ft 488 kts 325°
2026-05-05 16:07 52.92705 -1.53844 30365 ft 486 kts 325°
2026-05-05 16:08 52.95572 -1.56806 30635 ft 485 kts 325°
2026-05-05 16:08 52.98439 -1.59771 30879 ft 485 kts 325°
2026-05-05 16:08 53.01297 -1.62736 31124 ft 485 kts 325°
2026-05-05 16:08 53.04152 -1.65701 31387 ft 484 kts 326°
2026-05-05 16:09 53.07004 -1.68665 31650 ft 483 kts 326°
2026-05-05 16:09 53.09852 -1.71626 31913 ft 482 kts 326°
2026-05-05 16:09 53.12693 -1.74584 32160 ft 481 kts 326°
2026-05-05 16:09 53.15520 -1.77531 32381 ft 481 kts 326°
2026-05-05 16:10 53.18355 -1.80494 32605 ft 480 kts 326°
2026-05-05 16:10 53.21077 -1.83570 32812 ft 477 kts 319°
2026-05-05 16:10 53.23470 -1.87384 33000 ft 474 kts 309°
2026-05-05 16:10 53.25462 -1.91731 33216 ft 471 kts 301°
2026-05-05 16:11 53.27046 -1.96573 33432 ft 468 kts 293°
2026-05-05 16:11 53.31259 -2.11211 33921 ft 470 kts 295°
2026-05-05 16:12 53.32712 -2.16118 33973 ft 471 kts 295°
2026-05-05 16:13 53.38633 -2.41274 34023 ft 463 kts 286°
2026-05-05 16:13 53.40549 -2.51557 34026 ft 463 kts 286°
2026-05-05 16:14 53.44444 -2.72214 34032 ft 465 kts 286°
2026-05-05 16:15 53.48326 -2.92983 34048 ft 467 kts 286°
2026-05-05 16:16 53.52133 -3.13838 34037 ft 466 kts 285°
2026-05-05 16:17 53.54955 -3.29438 34047 ft 465 kts 285°
2026-05-05 16:18 53.57751 -3.45012 34047 ft 463 kts 285°
2026-05-05 16:19 53.60555 -3.60569 34033 ft 462 kts 285°
2026-05-05 16:19 53.62088 -3.76442 34050 ft 458 kts 272°
2026-05-05 16:20 53.62933 -3.97755 34047 ft 457 kts 272°
2026-05-05 16:22 53.63958 -4.24480 34044 ft 458 kts 272°
2026-05-05 16:23 53.64726 -4.45912 34034 ft 459 kts 272°
2026-05-05 16:23 53.65277 -4.62031 34045 ft 460 kts 272°
2026-05-05 16:24 53.65638 -4.72810 34053 ft 461 kts 272°
2026-05-05 16:25 53.66164 -4.89017 34054 ft 462 kts 272°
2026-05-05 16:25 53.66701 -5.05261 34054 ft 463 kts 273°
2026-05-05 16:26 53.67362 -5.26942 34056 ft 463 kts 272°
2026-05-05 16:27 53.67665 -5.37794 34055 ft 463 kts 272°
2026-05-05 16:27 53.67965 -5.48651 34062 ft 463 kts 272°
2026-05-05 16:28 53.67968 -5.59486 34062 ft 462 kts 269°
2026-05-05 16:28 53.67846 -5.70328 34065 ft 462 kts 269°
2026-05-05 16:29 53.67722 -5.81085 34067 ft 461 kts 269°
2026-05-05 16:29 53.67603 -5.91897 34068 ft 461 kts 269°
2026-05-05 16:30 53.67476 -6.02711 34079 ft 461 kts 269°
2026-05-05 16:30 53.67344 -6.13526 34072 ft 461 kts 269°
2026-05-05 16:31 53.67199 -6.24332 34075 ft 460 kts 269°
2026-05-05 16:31 53.67045 -6.35129 34074 ft 461 kts 269°
2026-05-05 16:32 53.66881 -6.45941 34077 ft 461 kts 269°
2026-05-05 16:32 53.66707 -6.56764 34072 ft 462 kts 269°
2026-05-05 16:33 53.66522 -6.67595 34075 ft 462 kts 269°
2026-05-05 16:33 53.66328 -6.78429 34075 ft 462 kts 268°
2026-05-05 16:34 53.66125 -6.89264 34072 ft 462 kts 268°
2026-05-05 16:34 53.65911 -7.00087 34073 ft 462 kts 268°
2026-05-05 16:35 53.65689 -7.10903 34078 ft 462 kts 268°
2026-05-05 16:35 53.65457 -7.21724 34084 ft 462 kts 268°
2026-05-05 16:36 53.65214 -7.32531 34083 ft 462 kts 268°
2026-05-05 16:36 53.64964 -7.43355 34095 ft 462 kts 268°
2026-05-05 16:37 53.64701 -7.54171 34093 ft 461 kts 268°
2026-05-05 16:37 53.64433 -7.64972 34096 ft 461 kts 268°
2026-05-05 16:38 53.63985 -7.75747 34094 ft 461 kts 265°
2026-05-05 16:38 53.63310 -7.86496 34092 ft 461 kts 264°
2026-05-05 16:39 53.62631 -7.97243 34097 ft 461 kts 264°
2026-05-05 16:39 53.61977 -8.07980 34103 ft 461 kts 265°
2026-05-05 16:40 53.61331 -8.18713 34101 ft 460 kts 265°
2026-05-05 16:40 53.60684 -8.29365 34102 ft 460 kts 265°
2026-05-05 16:41 53.60021 -8.40077 34100 ft 460 kts 264°
2026-05-05 16:41 53.59347 -8.50784 34102 ft 460 kts 264°
2026-05-05 16:42 53.58667 -8.61491 34102 ft 460 kts 264°
2026-05-05 16:42 53.57976 -8.72189 34102 ft 460 kts 264°
2026-05-05 16:43 53.57275 -8.82899 34102 ft 460 kts 264°
2026-05-05 16:43 53.56564 -8.93611 34102 ft 460 kts 264°
2026-05-05 16:44 53.55840 -9.04314 34101 ft 460 kts 264°
2026-05-05 16:44 53.55232 -9.13196 34103 ft 460 kts 264°
2026-05-05 16:45 53.54496 -9.23886 34101 ft 460 kts 264°
2026-05-05 16:45 53.53754 -9.34499 34103 ft 459 kts 264°
2026-05-05 16:46 53.52995 -9.45212 34102 ft 459 kts 264°
2026-05-05 16:46 53.52235 -9.55782 34103 ft 458 kts 264°
2026-05-05 16:47 53.51464 -9.66394 34101 ft 457 kts 264°
2026-05-05 16:47 53.50686 -9.76988 34100 ft 456 kts 264°
2026-05-05 16:48 53.49896 -9.87560 34109 ft 456 kts 263°
2026-05-05 16:48 53.49098 -9.98141 34101 ft 456 kts 263°
2026-05-05 16:49 53.48293 -10.08705 34103 ft 456 kts 263°
2026-05-05 16:49 53.47475 -10.19265 34099 ft 456 kts 263°
2026-05-05 16:50 53.46645 -10.29891 34112 ft 462 kts 263°
2026-05-05 16:50 53.45795 -10.40639 34109 ft 467 kts 263°
2026-05-05 16:51 53.44930 -10.51457 34104 ft 469 kts 263°
2026-05-05 16:51 53.44052 -10.62314 34101 ft 470 kts 263°
2026-05-05 16:52 53.43162 -10.73178 34102 ft 470 kts 263°
2026-05-05 16:52 53.42262 -10.84017 34100 ft 469 kts 263°
2026-05-05 16:53 53.41356 -10.94814 34100 ft 467 kts 263°
2026-05-05 16:53 53.40445 -11.05581 34098 ft 466 kts 263°
2026-05-05 16:54 53.39528 -11.16310 34101 ft 464 kts 263°
2026-05-05 16:54 53.38608 -11.26924 34102 ft 463 kts 263°
2026-05-05 16:55 53.37675 -11.37581 34100 ft 463 kts 262°
2026-05-05 16:55 53.36733 -11.48230 34102 ft 462 kts 262°
2026-05-05 16:56 53.35782 -11.58869 34101 ft 462 kts 262°
2026-05-05 16:56 53.34824 -11.69481 34104 ft 461 kts 262°
2026-05-05 16:57 53.33856 -11.80089 34101 ft 461 kts 262°
2026-05-05 16:57 53.32878 -11.90701 34101 ft 461 kts 262°
2026-05-05 16:58 53.31894 -12.01288 34102 ft 461 kts 262°
2026-05-05 16:58 53.30901 -12.11834 34104 ft 461 kts 262°
2026-05-05 16:59 53.29896 -12.22415 34109 ft 461 kts 262°
2026-05-05 16:59 53.28884 -12.32976 34111 ft 460 kts 262°
2026-05-05 17:00 53.27864 -12.43542 34111 ft 460 kts 262°
2026-05-05 17:00 53.26832 -12.54101 34110 ft 460 kts 262°
2026-05-05 17:01 53.25787 -12.64654 34111 ft 460 kts 261°
2026-05-05 17:01 53.24737 -12.75198 34109 ft 460 kts 261°
2026-05-05 17:02 53.23680 -12.85730 34111 ft 460 kts 261°
2026-05-05 17:02 53.22611 -12.96257 34109 ft 460 kts 261°
2026-05-05 17:03 53.21533 -13.06786 34112 ft 460 kts 261°
2026-05-05 17:03 53.20447 -13.17307 34111 ft 460 kts 261°
2026-05-05 17:04 53.19351 -13.27815 34111 ft 460 kts 261°
2026-05-05 17:04 53.18248 -13.38307 34110 ft 459 kts 261°
2026-05-05 17:05 53.17136 -13.48791 34110 ft 459 kts 261°
2026-05-05 17:05 53.16014 -13.59259 34111 ft 459 kts 261°
2026-05-05 17:06 53.14884 -13.69729 34112 ft 459 kts 261°
2026-05-05 17:06 53.13754 -13.80115 34111 ft 459 kts 260°
2026-05-05 17:07 53.12605 -13.90567 34111 ft 458 kts 260°
2026-05-05 17:07 53.11448 -14.01009 34111 ft 458 kts 260°
2026-05-05 17:08 53.10287 -14.11416 34111 ft 458 kts 260°
2026-05-05 17:08 53.09114 -14.21824 34111 ft 457 kts 260°
2026-05-05 17:09 53.07932 -14.32233 34111 ft 457 kts 259°
2026-05-05 17:09 53.06740 -14.42627 34111 ft 457 kts 259°
2026-05-05 17:10 53.05541 -14.53022 34110 ft 457 kts 259°
2026-05-05 17:10 53.04340 -14.63340 34110 ft 457 kts 259°
2026-05-05 17:11 53.03125 -14.73706 34111 ft 457 kts 259°
2026-05-05 17:11 53.01902 -14.84073 34111 ft 457 kts 259°
2026-05-05 17:12 53.00787 -14.94444 34105 ft 456 kts 266°
2026-05-05 17:12 53.01255 -15.04934 34118 ft 457 kts 280°
2026-05-05 17:13 53.03244 -15.14997 34175 ft 461 kts 289°
2026-05-05 17:13 53.04396 -15.19979 34322 ft 461 kts 289°
2026-05-05 17:13 53.05544 -15.24957 34457 ft 462 kts 289°
2026-05-05 17:14 53.06683 -15.29947 34620 ft 461 kts 289°
2026-05-05 17:14 53.07811 -15.34945 34773 ft 461 kts 289°
2026-05-05 17:14 53.08933 -15.39959 34918 ft 462 kts 289°
2026-05-05 17:14 53.10047 -15.44973 35054 ft 462 kts 289°
2026-05-05 17:15 53.11141 -15.49923 35171 ft 463 kts 289°
2026-05-05 17:15 53.12251 -15.54964 35324 ft 463 kts 289°
2026-05-05 17:15 53.13356 -15.59994 35456 ft 463 kts 289°
2026-05-05 17:15 53.14459 -15.65030 35556 ft 464 kts 289°
2026-05-05 17:16 53.15564 -15.70086 35691 ft 464 kts 289°
2026-05-05 17:16 53.16666 -15.75139 35807 ft 465 kts 289°
2026-05-05 17:16 53.17772 -15.80210 35923 ft 465 kts 289°
2026-05-05 17:16 53.18874 -15.85280 36018 ft 465 kts 289°
2026-05-05 17:17 53.21060 -15.95366 36105 ft 466 kts 289°
2026-05-05 17:17 53.23248 -16.05559 36117 ft 468 kts 289°
2026-05-05 17:18 53.25445 -16.15811 36130 ft 470 kts 289°
2026-05-05 17:18 53.27647 -16.26118 36126 ft 471 kts 289°
2026-05-05 17:19 53.29845 -16.36479 36122 ft 472 kts 288°
2026-05-05 17:19 53.32024 -16.46811 36116 ft 471 kts 288°
2026-05-05 17:20 53.34192 -16.57144 36122 ft 470 kts 288°
2026-05-05 17:20 53.36355 -16.67488 36118 ft 469 kts 288°
2026-05-05 17:21 53.38499 -16.77796 36113 ft 468 kts 288°
2026-05-05 17:22 53.41674 -16.93181 36120 ft 467 kts 288°
2026-05-05 17:22 53.43783 -17.03471 36118 ft 466 kts 288°
2026-05-05 17:23 53.45883 -17.13763 36117 ft 466 kts 288°
2026-05-05 17:23 53.47974 -17.24066 36122 ft 466 kts 288°
2026-05-05 17:24 53.50063 -17.34403 36125 ft 467 kts 288°
2026-05-05 17:24 53.52145 -17.44768 36117 ft 468 kts 288°
2026-05-05 17:25 53.54215 -17.55129 36124 ft 468 kts 288°
2026-05-05 17:25 53.56283 -17.65526 36132 ft 469 kts 288°
2026-05-05 17:26 53.58334 -17.75894 36128 ft 470 kts 288°
2026-05-05 17:26 53.60389 -17.86351 36132 ft 471 kts 288°
2026-05-05 17:27 53.62437 -17.96834 36125 ft 471 kts 288°
2026-05-05 17:27 53.64478 -18.07328 36128 ft 472 kts 288°
2026-05-05 17:28 53.66520 -18.17862 36129 ft 472 kts 288°
2026-05-05 17:28 53.68545 -18.28406 36132 ft 472 kts 287°
2026-05-05 17:29 53.70548 -18.38867 36131 ft 472 kts 288°
2026-05-05 17:29 53.72555 -18.49406 36127 ft 471 kts 287°
2026-05-05 17:30 53.74549 -18.59948 36129 ft 471 kts 287°
2026-05-05 17:30 53.76536 -18.70502 36135 ft 471 kts 287°
2026-05-05 17:31 53.78510 -18.81066 36135 ft 471 kts 287°
2026-05-05 17:31 53.80475 -18.91635 36126 ft 471 kts 287°
2026-05-05 17:32 53.82103 -19.00412 36123 ft 471 kts 288°
2026-05-05 17:32 53.84049 -19.10994 36128 ft 471 kts 288°
2026-05-05 17:33 53.85989 -19.21596 36130 ft 472 kts 288°
2026-05-05 17:33 53.87923 -19.32221 36127 ft 472 kts 288°
2026-05-05 17:34 53.89852 -19.42870 36129 ft 472 kts 288°
2026-05-05 17:34 53.91766 -19.53511 36141 ft 473 kts 288°
2026-05-05 17:35 53.93681 -19.64209 36144 ft 474 kts 288°
2026-05-05 17:35 53.95584 -19.74920 36127 ft 475 kts 288°
2026-05-05 17:36 53.97487 -19.85672 36144 ft 476 kts 288°
2026-05-05 17:36 53.99352 -19.96410 36146 ft 477 kts 285°
2026-05-05 17:37 54.00404 -20.07554 36136 ft 479 kts 275°
2026-05-05 17:37 54.00807 -20.18858 36138 ft 480 kts 275°
2026-05-05 17:38 54.01219 -20.30193 36137 ft 480 kts 275°
2026-05-05 17:38 54.01644 -20.41503 36178 ft 479 kts 275°
2026-05-05 17:39 54.02068 -20.52794 36181 ft 478 kts 275°
2026-05-05 17:39 54.02482 -20.64023 36186 ft 478 kts 275°
2026-05-05 17:40 54.02888 -20.75317 36184 ft 478 kts 275°
2026-05-05 17:40 54.03280 -20.86621 36186 ft 478 kts 275°
2026-05-05 17:41 54.03665 -20.97915 36185 ft 478 kts 275°
2026-05-05 17:41 54.04037 -21.09192 36184 ft 478 kts 275°
2026-05-05 17:42 54.04401 -21.20490 36177 ft 478 kts 275°
2026-05-05 17:42 54.04750 -21.31775 36181 ft 478 kts 275°
2026-05-05 17:43 54.05088 -21.43065 36188 ft 477 kts 275°
2026-05-05 17:43 54.05416 -21.54347 36195 ft 477 kts 275°
2026-05-05 17:44 54.05735 -21.65608 36195 ft 477 kts 275°
2026-05-05 17:44 54.06042 -21.76882 36195 ft 477 kts 275°
2026-05-05 17:45 54.06341 -21.88160 36197 ft 476 kts 275°
2026-05-05 17:45 54.06630 -21.99411 36196 ft 476 kts 275°
2026-05-05 17:46 54.06902 -22.10623 36194 ft 477 kts 274°
2026-05-05 17:46 54.07167 -22.21911 36196 ft 477 kts 274°
2026-05-05 17:47 54.07423 -22.33204 36193 ft 477 kts 274°
2026-05-05 17:47 54.07668 -22.44495 36195 ft 478 kts 274°
2026-05-05 17:48 54.07900 -22.55802 36189 ft 477 kts 274°
2026-05-05 17:48 54.08124 -22.67112 36197 ft 478 kts 274°
2026-05-05 17:49 54.08340 -22.78428 36209 ft 477 kts 274°
2026-05-05 17:49 54.08541 -22.89749 36215 ft 478 kts 274°
2026-05-05 17:50 54.08733 -23.00998 36212 ft 479 kts 274°
2026-05-05 17:50 54.08917 -23.12358 36212 ft 480 kts 274°
2026-05-05 17:51 54.09084 -23.23714 36213 ft 480 kts 274°
2026-05-05 17:51 54.09247 -23.35079 36221 ft 480 kts 274°
2026-05-05 17:52 54.09400 -23.46460 36221 ft 481 kts 274°
2026-05-05 17:52 54.09541 -23.57876 36223 ft 481 kts 274°
2026-05-05 17:53 54.09666 -23.69192 36234 ft 481 kts 274°
2026-05-05 17:53 54.09785 -23.80598 36251 ft 481 kts 274°
2026-05-05 17:54 54.09894 -23.92022 36265 ft 481 kts 274°
2026-05-05 17:54 54.09988 -24.03432 36275 ft 481 kts 274°
2026-05-05 17:55 54.10073 -24.14838 36277 ft 481 kts 274°
2026-05-05 17:55 54.10151 -24.26253 36276 ft 481 kts 274°
2026-05-05 17:56 54.10215 -24.37593 36283 ft 481 kts 274°
2026-05-05 17:56 54.10267 -24.49078 36286 ft 482 kts 274°
2026-05-05 17:57 54.10310 -24.60431 36285 ft 482 kts 274°
2026-05-05 17:57 54.10344 -24.72466 36286 ft 482 kts 274°
2026-05-05 17:58 54.10364 -24.83955 36285 ft 482 kts 274°
2026-05-05 17:58 54.10374 -24.95331 36283 ft 482 kts 274°
2026-05-05 17:59 54.10374 -25.06690 36286 ft 482 kts 274°
2026-05-05 17:59 54.10362 -25.18133 36285 ft 483 kts 274°
2026-05-05 18:00 54.10340 -25.29579 36293 ft 483 kts 274°
2026-05-05 18:00 54.10306 -25.41019 36296 ft 483 kts 274°
2026-05-05 18:01 54.10259 -25.52479 36296 ft 483 kts 274°
2026-05-05 18:01 54.10208 -25.63936 36295 ft 483 kts 274°
2026-05-05 18:02 54.10142 -25.75402 36293 ft 484 kts 274°
2026-05-05 18:02 54.10064 -25.86859 36302 ft 484 kts 274°
2026-05-05 18:03 54.09991 -25.96378 36370 ft 482 kts 274°
2026-05-05 18:03 54.09894 -26.07796 36386 ft 482 kts 274°
2026-05-05 18:04 54.09787 -26.19223 36393 ft 483 kts 273°
2026-05-05 18:04 54.09669 -26.30693 36390 ft 484 kts 273°
2026-05-05 18:05 54.09538 -26.42176 36384 ft 485 kts 273°
2026-05-05 18:05 54.09397 -26.53662 36387 ft 485 kts 273°
2026-05-05 18:06 54.09245 -26.65160 36387 ft 485 kts 273°
2026-05-05 18:06 54.09083 -26.76638 36391 ft 484 kts 273°
2026-05-05 18:07 54.08909 -26.88024 36396 ft 484 kts 273°
2026-05-05 18:07 54.08726 -26.99481 36391 ft 483 kts 273°
2026-05-05 18:08 54.08533 -27.10898 36397 ft 482 kts 272°
2026-05-05 18:08 54.08328 -27.22295 36401 ft 481 kts 272°
2026-05-05 18:09 54.08112 -27.33675 36409 ft 480 kts 272°
2026-05-05 18:09 54.07886 -27.45049 36408 ft 479 kts 272°
2026-05-05 18:10 54.07652 -27.56313 36402 ft 479 kts 272°
2026-05-05 18:10 54.07403 -27.67657 36413 ft 479 kts 272°
2026-05-05 18:11 54.07146 -27.78986 36395 ft 478 kts 272°
2026-05-05 18:11 54.06881 -27.90317 36408 ft 479 kts 272°
2026-05-05 18:12 54.06604 -28.01643 36408 ft 479 kts 272°
2026-05-05 18:12 54.06316 -28.12901 36407 ft 479 kts 272°
2026-05-05 18:13 54.06017 -28.24231 36411 ft 479 kts 271°
2026-05-05 18:13 54.05702 -28.35526 36397 ft 476 kts 270°
2026-05-05 18:14 54.05385 -28.46745 36401 ft 473 kts 270°
2026-05-05 18:14 54.05061 -28.57897 36400 ft 470 kts 270°
2026-05-05 18:15 54.04726 -28.69008 36404 ft 469 kts 270°
2026-05-05 18:15 54.04383 -28.80081 36401 ft 469 kts 270°
2026-05-05 18:16 54.04026 -28.91172 36405 ft 469 kts 269°
2026-05-05 18:16 54.03664 -29.02267 36405 ft 471 kts 269°
2026-05-05 18:17 54.03290 -29.13395 36401 ft 472 kts 269°
2026-05-05 18:17 54.02898 -29.24560 36403 ft 474 kts 269°
2026-05-05 18:18 54.02497 -29.35768 36407 ft 475 kts 268°
2026-05-05 18:18 54.02085 -29.46993 36413 ft 476 kts 268°
2026-05-05 18:19 54.01661 -29.58180 36416 ft 477 kts 268°
2026-05-05 18:19 54.01231 -29.69449 36415 ft 478 kts 268°
2026-05-05 18:20 54.00785 -29.80747 36412 ft 479 kts 268°
2026-05-05 18:20 54.00329 -29.92022 36419 ft 478 kts 267°
2026-05-05 18:21 54.00048 -30.03011 36402 ft 477 kts 274°
2026-05-05 18:21 54.00518 -30.14256 36415 ft 477 kts 276°
2026-05-05 18:22 54.01011 -30.25504 36417 ft 477 kts 275°
2026-05-05 18:22 54.01467 -30.36754 36415 ft 477 kts 275°
2026-05-05 18:23 54.01900 -30.48005 36416 ft 477 kts 275°
2026-05-05 18:23 54.02315 -30.59270 36413 ft 477 kts 275°
2026-05-05 18:24 54.02723 -30.70545 36415 ft 477 kts 274°
2026-05-05 18:24 54.03118 -30.81735 36417 ft 477 kts 274°
2026-05-05 18:25 54.03504 -30.93005 36411 ft 478 kts 274°
2026-05-05 18:25 54.03884 -31.04306 36415 ft 478 kts 273°
2026-05-05 18:26 54.04240 -31.15614 36413 ft 478 kts 273°
2026-05-05 18:26 54.04599 -31.26939 36340 ft 481 kts 272°
2026-05-05 18:27 54.04941 -31.38302 36342 ft 481 kts 272°
2026-05-05 18:27 54.05276 -31.49677 36340 ft 482 kts 272°
2026-05-05 18:28 54.05780 -31.66765 36340 ft 482 kts 271°
2026-05-05 18:28 54.06079 -31.78169 36339 ft 483 kts 271°
2026-05-05 18:29 54.06376 -31.89602 36347 ft 483 kts 271°
2026-05-05 18:29 54.06667 -32.01047 36344 ft 484 kts 271°
2026-05-05 18:30 54.06948 -32.12502 36342 ft 484 kts 271°
2026-05-05 18:30 54.07216 -32.23952 36343 ft 484 kts 271°
2026-05-05 18:31 54.07472 -32.35418 36340 ft 485 kts 271°
2026-05-05 18:31 54.07721 -32.46882 36338 ft 485 kts 270°
2026-05-05 18:32 54.07956 -32.58362 36333 ft 485 kts 270°
2026-05-05 18:32 54.08181 -32.69844 36328 ft 485 kts 270°
2026-05-05 18:33 54.08394 -32.81265 36331 ft 485 kts 270°
2026-05-05 18:33 54.08599 -32.92752 36326 ft 485 kts 270°
2026-05-05 18:34 54.08790 -33.04239 36330 ft 485 kts 269°
2026-05-05 18:34 54.08969 -33.15751 36337 ft 486 kts 269°
2026-05-05 18:35 54.09139 -33.27283 36335 ft 487 kts 269°
2026-05-05 18:35 54.09300 -33.38834 36332 ft 488 kts 269°
2026-05-05 18:36 54.09450 -33.50403 36336 ft 489 kts 268°
2026-05-05 18:36 54.09588 -33.61983 36332 ft 489 kts 268°
2026-05-05 18:37 54.09713 -33.73517 36327 ft 491 kts 268°
2026-05-05 18:37 54.09830 -33.85142 36340 ft 491 kts 268°
2026-05-05 18:38 54.09936 -33.96810 36335 ft 492 kts 268°
2026-05-05 18:38 54.10031 -34.08473 36337 ft 492 kts 267°
2026-05-05 18:39 54.10114 -34.20124 36330 ft 492 kts 267°
2026-05-05 18:39 54.10184 -34.31790 36333 ft 492 kts 267°
2026-05-05 18:40 54.10245 -34.43436 36332 ft 491 kts 267°
2026-05-05 18:40 54.10295 -34.55085 36331 ft 491 kts 267°
2026-05-05 18:41 54.10331 -34.66702 36332 ft 490 kts 267°
2026-05-05 18:41 54.10356 -34.78321 36326 ft 491 kts 267°
2026-05-05 18:42 54.10374 -34.89962 36329 ft 491 kts 266°
2026-05-05 18:42 54.10379 -35.01616 36321 ft 492 kts 266°
2026-05-05 18:43 54.10371 -35.13273 36322 ft 492 kts 266°
2026-05-05 18:43 54.10351 -35.24967 36319 ft 493 kts 266°
2026-05-05 18:44 54.10319 -35.36639 36322 ft 494 kts 266°
2026-05-05 18:44 54.10281 -35.48288 36318 ft 494 kts 266°
2026-05-05 18:45 54.10229 -35.60015 36319 ft 495 kts 265°
2026-05-05 18:45 54.10164 -35.71748 36324 ft 495 kts 265°
2026-05-05 18:46 54.10088 -35.83486 36323 ft 495 kts 265°
2026-05-05 18:46 54.10001 -35.95241 36328 ft 495 kts 265°
2026-05-05 18:47 54.09904 -36.06976 36323 ft 495 kts 265°
2026-05-05 18:47 54.09794 -36.18608 36316 ft 495 kts 265°
2026-05-05 18:48 54.09694 -36.28437 36323 ft 495 kts 265°
2026-05-05 18:48 54.09542 -36.42038 36304 ft 494 kts 265°
2026-05-05 18:49 54.09398 -36.53793 36214 ft 496 kts 265°
2026-05-05 18:49 54.09238 -36.65572 36165 ft 497 kts 265°
2026-05-05 18:50 54.09101 -36.75332 36160 ft 496 kts 264°
2026-05-05 18:50 54.08929 -36.87084 36153 ft 496 kts 264°
2026-05-05 18:51 54.08740 -36.98818 36157 ft 494 kts 264°
2026-05-05 18:51 54.08541 -37.10529 36166 ft 495 kts 264°
2026-05-05 18:52 54.08330 -37.22243 36185 ft 494 kts 264°
2026-05-05 18:52 54.08109 -37.33842 36222 ft 493 kts 264°
2026-05-05 18:53 54.07877 -37.45530 36226 ft 493 kts 264°
2026-05-05 18:53 54.07635 -37.57209 36231 ft 493 kts 264°
2026-05-05 18:54 54.07379 -37.68880 36225 ft 493 kts 264°
2026-05-05 18:54 54.07113 -37.80545 36219 ft 493 kts 264°
2026-05-05 18:55 54.06838 -37.92190 36222 ft 492 kts 264°
2026-05-05 18:55 54.06549 -38.03840 36221 ft 492 kts 263°
2026-05-05 18:56 54.06253 -38.15481 36221 ft 492 kts 263°
2026-05-05 18:56 54.05942 -38.27108 36221 ft 491 kts 263°
2026-05-05 18:57 54.05618 -38.38738 36221 ft 492 kts 263°
2026-05-05 18:57 54.05285 -38.50362 36222 ft 492 kts 263°
2026-05-05 18:58 54.04941 -38.61991 36218 ft 493 kts 263°
2026-05-05 18:58 54.04586 -38.73639 36212 ft 493 kts 263°
2026-05-05 18:59 54.04220 -38.85240 36213 ft 494 kts 263°
2026-05-05 18:59 54.03840 -38.96923 36214 ft 495 kts 263°
2026-05-05 19:00 54.03448 -39.08647 36212 ft 496 kts 262°
2026-05-05 19:00 54.03043 -39.20386 36212 ft 497 kts 262°
2026-05-05 19:01 54.02629 -39.32111 36217 ft 497 kts 262°
2026-05-05 19:01 54.02200 -39.43861 36210 ft 498 kts 262°
2026-05-05 19:02 54.01761 -39.55616 36212 ft 498 kts 262°
2026-05-05 19:02 54.01311 -39.67370 36206 ft 497 kts 262°
2026-05-05 19:03 54.00849 -39.79100 36202 ft 496 kts 262°
2026-05-05 19:03 54.00383 -39.90726 36201 ft 495 kts 262°
2026-05-05 19:04 53.99895 -40.02405 36202 ft 494 kts 261°
2026-05-05 19:04 53.99255 -40.14008 36202 ft 493 kts 260°
2026-05-05 19:05 53.98546 -40.25579 36203 ft 492 kts 260°
2026-05-05 19:05 53.97838 -40.37159 36205 ft 492 kts 260°
2026-05-05 19:06 53.97137 -40.48718 36202 ft 492 kts 260°
2026-05-05 19:06 53.96437 -40.60259 36202 ft 491 kts 260°
2026-05-05 19:07 53.95717 -40.71805 36188 ft 490 kts 260°
2026-05-05 19:07 53.94990 -40.83305 36198 ft 490 kts 260°
2026-05-05 19:08 53.94252 -40.94794 36187 ft 489 kts 259°
2026-05-05 19:08 53.93506 -41.06271 36196 ft 489 kts 260°
2026-05-05 19:09 53.92755 -41.17666 36188 ft 489 kts 259°
2026-05-05 19:09 53.91986 -41.29135 36193 ft 489 kts 259°
2026-05-05 19:10 53.91203 -41.40616 36196 ft 490 kts 259°
2026-05-05 19:10 53.90413 -41.52120 36180 ft 492 kts 259°
2026-05-05 19:11 53.89603 -41.63659 36162 ft 493 kts 259°
2026-05-05 19:11 53.88780 -41.75223 36157 ft 494 kts 259°
2026-05-05 19:12 53.87948 -41.86807 36159 ft 495 kts 259°
2026-05-05 19:12 53.87106 -41.98384 36154 ft 495 kts 259°
2026-05-05 19:13 53.86250 -42.09957 36159 ft 495 kts 259°
2026-05-05 19:13 53.85383 -42.21537 36160 ft 496 kts 258°
2026-05-05 19:14 53.84507 -42.33054 36158 ft 496 kts 259°
2026-05-05 19:14 53.83618 -42.44617 36157 ft 495 kts 258°
2026-05-05 19:15 53.82718 -42.56178 36151 ft 495 kts 258°
2026-05-05 19:15 53.81806 -42.67725 36146 ft 494 kts 258°
2026-05-05 19:16 53.80889 -42.79218 36150 ft 492 kts 258°
2026-05-05 19:16 53.79960 -42.90705 36147 ft 491 kts 258°
2026-05-05 19:17 53.79025 -43.02124 36147 ft 491 kts 258°
2026-05-05 19:17 53.78077 -43.13562 36147 ft 490 kts 258°
2026-05-05 19:18 53.77122 -43.24972 36150 ft 490 kts 258°
2026-05-05 19:18 53.76160 -43.36297 36144 ft 490 kts 258°
2026-05-05 19:19 53.75180 -43.47705 36147 ft 491 kts 258°
2026-05-05 19:19 53.74189 -43.59113 36143 ft 491 kts 258°
2026-05-05 19:20 53.73183 -43.70543 36138 ft 492 kts 258°
2026-05-05 19:20 53.72168 -43.82000 36132 ft 494 kts 258°
2026-05-05 19:21 53.71140 -43.93466 36133 ft 495 kts 258°
2026-05-05 19:21 53.70097 -44.04960 36137 ft 495 kts 258°
2026-05-05 19:22 53.69041 -44.16447 36133 ft 496 kts 258°
2026-05-05 19:22 53.67976 -44.27933 36132 ft 496 kts 258°
2026-05-05 19:23 53.66897 -44.39414 36145 ft 495 kts 258°
2026-05-05 19:23 53.65811 -44.50872 36128 ft 495 kts 258°
2026-05-05 19:24 53.64723 -44.62247 36128 ft 494 kts 258°
2026-05-05 19:24 53.63617 -44.73659 36129 ft 493 kts 257°
2026-05-05 19:25 53.62502 -44.85054 36125 ft 492 kts 257°
2026-05-05 19:25 53.61380 -44.96439 36128 ft 492 kts 257°
2026-05-05 19:26 53.60246 -45.07790 36128 ft 491 kts 257°
2026-05-05 19:26 53.59103 -45.19117 36134 ft 491 kts 257°
2026-05-05 19:27 53.57949 -45.30444 36127 ft 491 kts 257°
2026-05-05 19:27 53.56785 -45.41779 36130 ft 491 kts 257°
2026-05-05 19:28 53.55608 -45.53126 36090 ft 493 kts 257°
2026-05-05 19:28 53.54414 -45.64489 36072 ft 494 kts 257°
2026-05-05 19:29 53.53221 -45.75770 36068 ft 494 kts 257°
2026-05-05 19:29 53.52007 -45.87147 36063 ft 494 kts 257°
2026-05-05 19:30 53.50780 -45.98516 36066 ft 495 kts 257°
2026-05-05 19:30 53.49543 -46.09883 36067 ft 495 kts 257°
2026-05-05 19:31 53.48295 -46.21248 35996 ft 495 kts 257°
2026-05-05 19:31 53.47034 -46.32631 35922 ft 496 kts 257°
2026-05-05 19:32 53.45761 -46.43997 35866 ft 495 kts 257°
2026-05-05 19:32 53.44483 -46.55332 35861 ft 493 kts 257°
2026-05-05 19:33 53.43198 -46.66611 35867 ft 491 kts 257°
2026-05-05 19:33 53.41906 -46.77833 35867 ft 490 kts 257°
2026-05-05 19:34 53.40612 -46.89014 35857 ft 488 kts 257°
2026-05-05 19:35 53.38872 -47.03847 35855 ft 487 kts 256°
2026-05-05 19:35 53.37341 -47.16772 35850 ft 487 kts 256°
2026-05-05 19:36 53.36229 -47.26084 35855 ft 486 kts 256°
2026-05-05 19:36 53.34905 -47.37103 35851 ft 486 kts 256°
2026-05-05 19:37 53.33563 -47.48179 35842 ft 485 kts 256°
2026-05-05 19:37 53.32209 -47.59249 35843 ft 485 kts 256°
2026-05-05 19:38 53.30847 -47.70300 35841 ft 486 kts 256°
2026-05-05 19:38 53.29472 -47.81355 35836 ft 486 kts 256°
2026-05-05 19:39 53.28087 -47.92416 35835 ft 486 kts 256°
2026-05-05 19:39 53.26691 -48.03463 35835 ft 486 kts 256°
2026-05-05 19:40 53.25287 -48.14497 35833 ft 486 kts 256°
2026-05-05 19:40 53.23881 -48.25454 35825 ft 485 kts 256°
2026-05-05 19:41 53.22458 -48.36469 35823 ft 485 kts 256°
2026-05-05 19:41 53.21024 -48.47474 35822 ft 485 kts 256°
2026-05-05 19:42 53.19585 -48.58442 35818 ft 484 kts 256°
2026-05-05 19:42 53.18134 -48.69401 35814 ft 484 kts 256°
2026-05-05 19:43 53.16674 -48.80331 35814 ft 483 kts 256°
2026-05-05 19:43 53.15204 -48.91262 35811 ft 483 kts 256°
2026-05-05 19:44 53.13729 -49.02172 35804 ft 482 kts 256°
2026-05-05 19:44 53.12245 -49.13063 35807 ft 482 kts 256°
2026-05-05 19:45 53.10753 -49.23936 35805 ft 482 kts 256°
2026-05-05 19:45 53.09260 -49.34733 35797 ft 482 kts 256°
2026-05-05 19:46 53.07744 -49.45602 35796 ft 482 kts 255°
2026-05-05 19:46 53.06219 -49.56451 35793 ft 482 kts 255°
2026-05-05 19:47 53.04684 -49.67308 35791 ft 482 kts 255°
2026-05-05 19:47 53.03143 -49.78157 35745 ft 483 kts 255°
2026-05-05 19:48 53.01587 -49.89023 35667 ft 484 kts 255°
2026-05-05 19:48 52.99969 -49.99857 35651 ft 482 kts 252°
2026-05-05 19:49 52.97608 -50.10250 35654 ft 481 kts 247°
2026-05-05 19:49 52.95089 -50.20504 35646 ft 480 kts 247°
2026-05-05 19:50 52.92608 -50.30682 35646 ft 479 kts 248°
2026-05-05 19:50 52.90118 -50.40926 35644 ft 479 kts 248°
2026-05-05 19:51 52.87626 -50.51156 35641 ft 479 kts 248°
2026-05-05 19:51 52.85123 -50.61370 35632 ft 478 kts 247°
2026-05-05 19:52 52.82613 -50.71564 35636 ft 478 kts 248°
2026-05-05 19:52 52.80097 -50.81740 35642 ft 478 kts 247°
2026-05-05 19:53 52.77569 -50.91905 35641 ft 478 kts 247°
2026-05-05 19:53 52.75034 -51.02060 35627 ft 478 kts 247°
2026-05-05 19:54 52.72489 -51.12205 35632 ft 478 kts 247°
2026-05-05 19:54 52.69941 -51.22325 35633 ft 478 kts 247°
2026-05-05 19:55 52.67385 -51.32425 35623 ft 478 kts 247°
2026-05-05 19:55 52.64813 -51.42537 35630 ft 477 kts 247°
2026-05-05 19:56 52.62234 -51.52631 35615 ft 477 kts 247°
2026-05-05 19:56 52.59673 -51.62618 35615 ft 476 kts 247°
2026-05-05 19:57 52.57089 -51.72652 35632 ft 476 kts 247°
2026-05-05 19:57 52.54499 -51.82654 35617 ft 475 kts 247°
2026-05-05 19:58 52.51906 -51.92632 35614 ft 474 kts 247°
2026-05-05 19:58 52.49308 -52.02588 35616 ft 474 kts 247°
2026-05-05 19:59 52.46703 -52.12508 35614 ft 473 kts 247°
2026-05-05 19:59 52.44092 -52.22420 35614 ft 473 kts 247°
2026-05-05 20:00 52.41496 -52.32240 35608 ft 473 kts 247°
2026-05-05 20:00 52.38869 -52.42121 35610 ft 473 kts 247°
2026-05-05 20:01 52.36236 -52.51978 35611 ft 473 kts 247°
2026-05-05 20:01 52.33595 -52.61835 35610 ft 473 kts 247°
2026-05-05 20:02 52.30946 -52.71680 35623 ft 473 kts 247°
2026-05-05 20:02 52.28288 -52.81508 35664 ft 473 kts 246°
2026-05-05 20:03 52.25622 -52.91334 35672 ft 474 kts 246°
2026-05-05 20:03 52.22946 -53.01157 35679 ft 474 kts 246°
2026-05-05 20:04 52.20255 -53.10984 35678 ft 475 kts 246°
2026-05-05 20:04 52.17570 -53.20749 35675 ft 475 kts 246°
2026-05-05 20:05 52.14856 -53.30572 35669 ft 475 kts 246°
2026-05-05 20:05 52.12135 -53.40388 35667 ft 475 kts 247°
2026-05-05 20:06 52.09408 -53.50181 35665 ft 475 kts 247°
2026-05-05 20:06 52.06677 -53.59947 35662 ft 474 kts 247°
2026-05-05 20:07 52.03946 -53.69673 35664 ft 473 kts 247°
2026-05-05 20:07 52.01213 -53.79370 35666 ft 472 kts 247°
2026-05-05 20:08 51.98489 -53.88997 35657 ft 471 kts 247°
2026-05-05 20:08 51.95743 -53.98653 35655 ft 471 kts 247°
2026-05-05 20:09 51.92994 -54.08284 35654 ft 470 kts 246°
2026-05-05 20:09 51.90243 -54.17882 35655 ft 469 kts 246°
2026-05-05 20:10 51.87486 -54.27472 35656 ft 470 kts 246°
2026-05-05 20:10 51.84738 -54.36980 35656 ft 469 kts 246°
2026-05-05 20:11 51.81968 -54.46540 35662 ft 469 kts 246°
2026-05-05 20:11 51.79633 -54.56344 35652 ft 467 kts 255°
2026-05-05 20:12 51.78246 -54.66560 35661 ft 465 kts 259°
2026-05-05 20:12 51.76959 -54.76779 35655 ft 464 kts 259°
2026-05-05 20:13 51.75646 -54.86973 35662 ft 463 kts 259°
2026-05-05 20:13 51.74317 -54.97129 35688 ft 462 kts 259°
2026-05-05 20:14 51.72977 -55.07260 35695 ft 461 kts 259°
2026-05-05 20:14 51.71632 -55.17370 35693 ft 461 kts 259°
2026-05-05 20:15 51.70283 -55.27463 35694 ft 460 kts 259°
2026-05-05 20:15 51.68938 -55.37478 35695 ft 460 kts 259°
2026-05-05 20:16 51.67567 -55.47556 35697 ft 460 kts 259°
2026-05-05 20:16 51.66188 -55.57629 35709 ft 461 kts 258°
2026-05-05 20:17 51.64805 -55.67700 35699 ft 460 kts 258°
2026-05-05 20:17 51.63413 -55.77754 35703 ft 460 kts 258°
2026-05-05 20:18 51.62013 -55.87809 35710 ft 461 kts 258°
2026-05-05 20:18 51.60601 -55.97857 35714 ft 460 kts 258°
2026-05-05 20:19 51.59179 -56.07902 35716 ft 460 kts 258°
2026-05-05 20:19 51.57750 -56.17940 35716 ft 460 kts 258°
2026-05-05 20:20 51.56318 -56.27947 35719 ft 459 kts 258°
2026-05-05 20:20 51.54878 -56.37947 35715 ft 459 kts 258°
2026-05-05 20:21 51.53442 -56.47863 35727 ft 458 kts 258°
2026-05-05 20:21 51.51991 -56.57816 35722 ft 457 kts 258°
2026-05-05 20:22 51.50524 -56.67756 35722 ft 458 kts 258°
2026-05-05 20:22 51.49051 -56.77695 35731 ft 457 kts 258°
2026-05-05 20:23 51.47577 -56.87608 35732 ft 456 kts 258°
2026-05-05 20:23 51.46095 -56.97513 35734 ft 456 kts 258°
2026-05-05 20:24 51.44606 -57.07375 35741 ft 455 kts 258°
2026-05-05 20:24 51.43369 -57.15561 35743 ft 455 kts 258°
2026-05-05 20:25 51.41621 -57.27018 35738 ft 455 kts 258°
2026-05-05 20:25 51.40110 -57.36857 35739 ft 454 kts 258°
2026-05-05 20:26 51.38847 -57.45015 35741 ft 453 kts 258°
2026-05-05 20:26 51.37331 -57.54824 35743 ft 454 kts 258°
2026-05-05 20:27 51.35800 -57.64632 35742 ft 455 kts 258°
2026-05-05 20:27 51.34248 -57.74446 35735 ft 455 kts 258°
2026-05-05 20:28 51.32701 -57.84256 35738 ft 455 kts 258°
2026-05-05 20:28 51.31145 -57.94051 35738 ft 454 kts 257°
2026-05-05 20:29 51.29577 -58.03842 35743 ft 454 kts 257°
2026-05-05 20:29 51.28010 -58.13594 35738 ft 453 kts 257°
2026-05-05 20:30 51.26436 -58.23282 35736 ft 453 kts 257°
2026-05-05 20:30 51.24854 -58.33018 35743 ft 453 kts 257°
2026-05-05 20:31 51.23263 -58.42744 35740 ft 453 kts 257°
2026-05-05 20:31 51.21664 -58.52460 35741 ft 452 kts 257°
2026-05-05 20:32 51.20058 -58.62162 35725 ft 452 kts 257°
2026-05-05 20:32 51.18444 -58.71848 35734 ft 451 kts 257°
2026-05-05 20:33 51.16827 -58.81501 35732 ft 450 kts 257°
2026-05-05 20:33 51.15205 -58.91132 35728 ft 450 kts 257°
2026-05-05 20:34 51.13578 -59.00749 35727 ft 449 kts 257°
2026-05-05 20:34 51.11954 -59.10286 35734 ft 448 kts 257°
2026-05-05 20:35 51.10314 -59.19857 35731 ft 448 kts 257°
2026-05-05 20:35 51.08669 -59.29417 35730 ft 448 kts 257°
2026-05-05 20:36 51.07016 -59.38969 35724 ft 448 kts 257°
2026-05-05 20:36 51.05356 -59.48514 35717 ft 448 kts 257°
2026-05-05 20:37 51.03686 -59.58049 35717 ft 448 kts 257°
2026-05-05 20:37 51.02009 -59.67561 35718 ft 447 kts 257°
2026-05-05 20:38 51.00330 -59.77054 35728 ft 447 kts 257°
2026-05-05 20:38 50.98644 -59.86552 35728 ft 446 kts 257°
2026-05-05 20:39 50.96959 -59.95987 35721 ft 447 kts 257°
2026-05-05 20:39 50.95244 -60.05533 35722 ft 447 kts 257°
2026-05-05 20:40 50.93547 -60.14926 35714 ft 446 kts 257°
2026-05-05 20:40 50.91830 -60.24379 35712 ft 445 kts 257°
2026-05-05 20:41 50.90108 -60.33813 35713 ft 446 kts 257°
2026-05-05 20:41 50.88378 -60.43244 35712 ft 445 kts 257°
2026-05-05 20:42 50.86654 -60.52593 35697 ft 445 kts 257°
2026-05-05 20:42 50.84913 -60.61992 35692 ft 445 kts 257°
2026-05-05 20:43 50.83164 -60.71379 35694 ft 444 kts 257°
2026-05-05 20:43 50.81412 -60.80740 35696 ft 443 kts 257°
2026-05-05 20:44 50.79654 -60.90080 35694 ft 443 kts 257°
2026-05-05 20:44 50.77892 -60.99390 35694 ft 442 kts 256°
2026-05-05 20:45 50.75243 -61.13316 35690 ft 441 kts 256°
2026-05-05 20:45 50.73480 -61.22532 35694 ft 441 kts 256°
2026-05-05 20:46 50.71702 -61.31779 35690 ft 440 kts 256°
2026-05-05 20:46 50.69912 -61.41036 35694 ft 440 kts 256°
2026-05-05 20:47 50.68119 -61.50266 35695 ft 440 kts 256°
2026-05-05 20:47 50.66322 -61.59470 35694 ft 439 kts 256°
2026-05-05 20:48 50.64521 -61.68660 35694 ft 439 kts 256°
2026-05-05 20:48 50.62715 -61.77824 35702 ft 438 kts 256°
2026-05-05 20:49 50.60906 -61.86969 35697 ft 437 kts 256°
2026-05-05 20:49 50.59085 -61.96116 35689 ft 437 kts 256°
2026-05-05 20:50 50.57274 -62.05174 35689 ft 436 kts 256°
2026-05-05 20:50 50.55444 -62.14275 35693 ft 435 kts 256°
2026-05-05 20:51 50.53615 -62.23339 35691 ft 435 kts 256°
2026-05-05 20:51 50.51783 -62.32388 35689 ft 434 kts 256°
2026-05-05 20:52 50.49942 -62.41438 35697 ft 434 kts 255°
2026-05-05 20:52 50.48095 -62.50466 35690 ft 434 kts 255°
2026-05-05 20:53 50.46242 -62.59492 35682 ft 434 kts 255°
2026-05-05 20:53 50.44381 -62.68512 35686 ft 434 kts 255°
2026-05-05 20:54 50.42526 -62.77460 35683 ft 434 kts 255°
2026-05-05 20:54 50.40653 -62.86454 35681 ft 434 kts 255°
2026-05-05 20:55 50.38770 -62.95446 35674 ft 434 kts 255°
2026-05-05 20:55 50.36886 -63.04413 35675 ft 433 kts 255°
2026-05-05 20:56 50.34997 -63.13360 35668 ft 433 kts 254°
2026-05-05 20:56 50.33101 -63.22304 35666 ft 432 kts 254°
2026-05-05 20:57 50.31202 -63.31223 35665 ft 431 kts 254°
2026-05-05 20:57 50.29302 -63.40114 35657 ft 430 kts 254°
2026-05-05 20:58 50.27402 -63.48961 35653 ft 428 kts 253°
2026-05-05 20:58 50.25498 -63.57772 35653 ft 427 kts 253°
2026-05-05 20:59 50.23597 -63.66548 35643 ft 426 kts 253°
2026-05-05 20:59 50.21707 -63.75249 35641 ft 424 kts 253°
2026-05-05 21:00 50.19802 -63.83970 35632 ft 424 kts 253°
2026-05-05 21:00 50.17890 -63.92675 35628 ft 423 kts 253°
2026-05-05 21:01 50.15977 -64.01349 35636 ft 423 kts 253°
2026-05-05 21:01 50.14062 -64.10011 35625 ft 423 kts 253°
2026-05-05 21:02 50.12139 -64.18666 35626 ft 423 kts 253°
2026-05-05 21:02 50.10208 -64.27324 35629 ft 422 kts 253°
2026-05-05 21:03 50.08286 -64.35907 35615 ft 423 kts 253°
2026-05-05 21:03 50.06344 -64.44533 35626 ft 422 kts 252°
2026-05-05 21:04 50.04393 -64.53171 35608 ft 423 kts 252°
2026-05-05 21:04 50.02436 -64.61801 35600 ft 424 kts 252°
2026-05-05 21:05 50.00468 -64.70442 35600 ft 424 kts 252°
2026-05-05 21:05 49.98494 -64.79076 35604 ft 424 kts 252°
2026-05-05 21:06 49.96516 -64.87689 35593 ft 423 kts 252°
2026-05-05 21:06 49.94531 -64.96290 35591 ft 422 kts 252°
2026-05-05 21:07 49.92563 -65.04799 35590 ft 421 kts 251°
2026-05-05 21:07 49.90580 -65.13343 35591 ft 421 kts 251°
2026-05-05 21:08 49.88590 -65.21870 35592 ft 419 kts 251°
2026-05-05 21:08 49.86600 -65.30368 35589 ft 419 kts 251°
2026-05-05 21:09 49.84604 -65.38851 35582 ft 418 kts 251°
2026-05-05 21:09 49.82610 -65.47300 35580 ft 417 kts 251°
2026-05-05 21:10 49.80613 -65.55726 35581 ft 416 kts 251°
2026-05-05 21:10 49.78615 -65.64125 35580 ft 415 kts 250°
2026-05-05 21:11 49.76956 -65.71084 35583 ft 415 kts 250°
2026-05-05 21:11 49.74626 -65.80808 35578 ft 415 kts 250°
2026-05-05 21:12 49.72611 -65.89171 35572 ft 415 kts 250°
2026-05-05 21:12 49.70595 -65.97514 35572 ft 414 kts 250°
2026-05-05 21:13 49.68903 -66.04498 35573 ft 414 kts 250°
2026-05-05 21:13 49.66888 -66.12783 35573 ft 415 kts 250°
2026-05-05 21:14 49.64851 -66.21121 35571 ft 415 kts 250°
2026-05-05 21:14 49.62814 -66.29436 35567 ft 415 kts 250°
2026-05-05 21:15 49.60768 -66.37754 35562 ft 415 kts 250°
2026-05-05 21:15 49.58712 -66.46078 35561 ft 415 kts 250°
2026-05-05 21:16 49.56650 -66.54402 35563 ft 415 kts 250°
2026-05-05 21:16 49.54580 -66.62717 35562 ft 415 kts 249°
2026-05-05 21:17 49.52506 -66.71019 35561 ft 416 kts 249°
2026-05-05 21:17 49.50423 -66.79333 35552 ft 416 kts 249°
2026-05-05 21:18 49.48335 -66.87639 35554 ft 416 kts 249°
2026-05-05 21:18 49.46253 -66.95883 35555 ft 417 kts 249°
2026-05-05 21:19 49.44148 -67.04189 35553 ft 417 kts 249°
2026-05-05 21:19 49.42037 -67.12484 35551 ft 417 kts 249°
2026-05-05 21:20 49.39923 -67.20765 35545 ft 417 kts 249°
2026-05-05 21:20 49.37802 -67.29046 35543 ft 416 kts 249°
2026-05-05 21:21 49.35677 -67.37307 35543 ft 416 kts 249°
2026-05-05 21:21 49.33549 -67.45549 35536 ft 415 kts 248°
2026-05-05 21:22 49.31418 -67.53778 35536 ft 415 kts 248°
2026-05-05 21:22 49.29284 -67.61990 35534 ft 415 kts 248°
2026-05-05 21:23 49.27155 -67.70148 35540 ft 414 kts 248°
2026-05-05 21:23 49.25000 -67.78380 35534 ft 414 kts 248°
2026-05-05 21:24 49.22864 -67.86506 35535 ft 414 kts 248°
2026-05-05 21:24 49.20711 -67.94674 35536 ft 414 kts 248°
2026-05-05 21:25 49.18554 -68.02825 35534 ft 413 kts 248°
2026-05-05 21:25 49.16392 -68.10965 35535 ft 413 kts 248°
2026-05-05 21:26 49.14231 -68.19088 35534 ft 413 kts 248°
2026-05-05 21:26 49.11885 -68.27099 35538 ft 413 kts 244°
2026-05-05 21:27 49.09385 -68.34992 35535 ft 413 kts 244°
2026-05-05 21:27 49.06884 -68.42892 35534 ft 413 kts 244°
2026-05-05 21:28 49.04387 -68.50776 35535 ft 413 kts 244°
2026-05-05 21:28 49.01901 -68.58602 35535 ft 413 kts 244°
2026-05-05 21:29 48.99388 -68.66492 35534 ft 413 kts 244°
2026-05-05 21:29 48.96876 -68.74359 35536 ft 413 kts 244°
2026-05-05 21:30 48.94356 -68.82223 35533 ft 413 kts 244°
2026-05-05 21:30 48.91831 -68.90078 35535 ft 413 kts 244°
2026-05-05 21:31 48.89303 -68.97915 35537 ft 413 kts 244°
2026-05-05 21:31 48.86767 -69.05746 35539 ft 413 kts 244°
2026-05-05 21:32 48.84246 -69.13515 35536 ft 412 kts 244°
2026-05-05 21:32 48.81708 -69.21327 35533 ft 412 kts 243°
2026-05-05 21:33 48.79168 -69.29109 35532 ft 412 kts 243°
2026-05-05 21:33 48.76625 -69.36880 35534 ft 411 kts 243°
2026-05-05 21:34 48.74077 -69.44634 35546 ft 411 kts 243°
2026-05-05 21:34 48.71520 -69.52389 35545 ft 410 kts 243°
2026-05-05 21:35 48.68965 -69.60118 35544 ft 410 kts 243°
2026-05-05 21:35 48.66413 -69.67816 35544 ft 409 kts 243°
2026-05-05 21:36 48.63859 -69.75499 35552 ft 408 kts 243°
2026-05-05 21:36 48.61298 -69.83182 35552 ft 408 kts 243°
2026-05-05 21:37 48.58739 -69.90836 35566 ft 408 kts 243°
2026-05-05 21:37 48.56188 -69.98434 35582 ft 408 kts 243°
2026-05-05 21:38 48.53626 -70.06047 35587 ft 408 kts 243°
2026-05-05 21:38 48.51055 -70.13663 35576 ft 407 kts 243°
2026-05-05 21:39 48.48479 -70.21273 35586 ft 407 kts 243°
2026-05-05 21:39 48.45901 -70.28867 35578 ft 407 kts 242°
2026-05-05 21:40 48.43314 -70.36465 35581 ft 407 kts 242°
2026-05-05 21:40 48.40726 -70.44042 35579 ft 407 kts 242°
2026-05-05 21:41 48.38135 -70.51615 35584 ft 407 kts 242°
2026-05-05 21:41 48.35535 -70.59181 35583 ft 407 kts 242°
2026-05-05 21:42 48.32929 -70.66736 35587 ft 407 kts 242°
2026-05-05 21:42 48.30321 -70.74285 35593 ft 407 kts 242°
2026-05-05 21:43 48.27704 -70.81836 35590 ft 408 kts 242°
2026-05-05 21:43 48.25086 -70.89376 35588 ft 407 kts 242°
2026-05-05 21:44 48.22473 -70.96866 35594 ft 408 kts 242°
2026-05-05 21:44 48.19836 -71.04411 35590 ft 408 kts 242°
2026-05-05 21:45 48.17180 -71.11988 35586 ft 409 kts 242°
2026-05-05 21:45 48.14547 -71.19473 35593 ft 409 kts 242°
2026-05-05 21:46 48.11891 -71.27005 35585 ft 409 kts 242°
2026-05-05 21:46 48.09235 -71.34516 35594 ft 409 kts 242°
2026-05-05 21:47 48.06573 -71.42025 35603 ft 410 kts 242°
2026-05-05 21:47 48.05236 -71.45790 35762 ft 410 kts 243°
2026-05-05 21:47 48.03895 -71.49557 35956 ft 410 kts 242°
2026-05-05 21:48 48.02557 -71.53308 36160 ft 410 kts 242°
2026-05-05 21:48 48.01209 -71.57083 36284 ft 412 kts 242°
2026-05-05 21:48 47.99860 -71.60858 36416 ft 413 kts 242°
2026-05-05 21:48 47.98503 -71.64649 36549 ft 414 kts 242°
2026-05-05 21:49 47.97140 -71.68449 36767 ft 414 kts 242°
2026-05-05 21:49 47.95784 -71.72227 37030 ft 412 kts 242°
2026-05-05 21:49 47.94432 -71.75987 37247 ft 410 kts 242°
2026-05-05 21:49 47.93084 -71.79733 37398 ft 411 kts 242°
2026-05-05 21:50 47.90387 -71.87207 37513 ft 412 kts 242°
2026-05-05 21:50 47.87650 -71.94777 37558 ft 416 kts 242°
2026-05-05 21:51 47.84885 -72.02389 37571 ft 418 kts 242°
2026-05-05 21:51 47.82105 -72.10024 37582 ft 420 kts 242°
2026-05-05 21:52 47.77920 -72.21477 37569 ft 420 kts 242°
2026-05-05 21:53 47.75132 -72.29083 37571 ft 419 kts 242°
2026-05-05 21:53 47.72349 -72.36659 37563 ft 416 kts 242°
2026-05-05 21:54 47.69590 -72.44143 37559 ft 415 kts 242°
2026-05-05 21:54 47.66823 -72.51639 37571 ft 413 kts 242°
2026-05-05 21:55 47.64053 -72.59113 37575 ft 413 kts 242°
2026-05-05 21:55 47.61272 -72.66575 37567 ft 413 kts 241°
2026-05-05 21:56 47.58501 -72.74010 37574 ft 412 kts 241°
2026-05-05 21:56 47.55725 -72.81432 37569 ft 412 kts 241°
2026-05-05 21:57 47.53412 -72.87606 37563 ft 413 kts 242°
2026-05-05 21:57 47.50171 -72.96217 37575 ft 412 kts 241°
2026-05-05 21:58 47.47382 -73.03626 37572 ft 412 kts 241°
2026-05-05 21:58 47.45058 -73.09781 37577 ft 413 kts 241°
2026-05-05 21:59 47.42251 -73.17181 37573 ft 413 kts 241°
2026-05-05 21:59 47.39431 -73.24599 37574 ft 414 kts 241°
2026-05-05 22:00 47.36612 -73.31997 37582 ft 414 kts 241°
2026-05-05 22:00 47.33782 -73.39404 37580 ft 414 kts 241°
2026-05-05 22:01 47.30956 -73.46795 37578 ft 415 kts 241°
2026-05-05 22:01 47.28106 -73.54209 37575 ft 415 kts 241°
2026-05-05 22:02 47.25262 -73.61573 37592 ft 414 kts 241°
2026-05-05 22:02 47.22413 -73.68952 37590 ft 414 kts 241°
2026-05-05 22:03 47.19566 -73.76317 37591 ft 415 kts 241°
2026-05-05 22:03 47.16720 -73.83643 37590 ft 415 kts 240°
2026-05-05 22:04 47.13848 -73.91004 37590 ft 415 kts 240°
2026-05-05 22:04 47.10978 -73.98348 37594 ft 415 kts 240°
2026-05-05 22:05 47.08104 -74.05693 37600 ft 415 kts 241°
2026-05-05 22:05 47.05231 -74.13021 37617 ft 414 kts 240°
2026-05-05 22:06 47.02354 -74.20328 37619 ft 413 kts 240°
2026-05-05 22:06 46.99477 -74.27626 37618 ft 413 kts 240°
2026-05-05 22:07 46.96600 -74.34888 37620 ft 411 kts 240°
2026-05-05 22:07 46.93726 -74.42114 37628 ft 410 kts 240°
2026-05-05 22:08 46.90852 -74.49333 37627 ft 410 kts 240°
2026-05-05 22:08 46.87973 -74.56543 37632 ft 411 kts 240°
2026-05-05 22:09 46.85112 -74.63694 37640 ft 409 kts 240°
2026-05-05 22:09 46.82240 -74.70869 37645 ft 409 kts 240°
2026-05-05 22:10 46.79361 -74.78029 37650 ft 408 kts 240°
2026-05-05 22:10 46.76476 -74.85170 37646 ft 408 kts 240°
2026-05-05 22:11 46.73596 -74.92297 37661 ft 408 kts 240°
2026-05-05 22:11 46.70710 -74.99430 37655 ft 409 kts 240°
2026-05-05 22:12 46.67817 -75.06544 37657 ft 408 kts 240°
2026-05-05 22:12 46.64925 -75.13638 37659 ft 407 kts 240°
2026-05-05 22:13 46.62029 -75.20725 37662 ft 407 kts 240°
2026-05-05 22:13 46.59138 -75.27790 37673 ft 406 kts 240°
2026-05-05 22:14 46.56241 -75.34832 37674 ft 405 kts 240°
2026-05-05 22:14 46.53370 -75.41815 37675 ft 405 kts 240°
2026-05-05 22:15 46.50475 -75.48815 37680 ft 403 kts 240°
2026-05-05 22:15 46.47576 -75.55831 37694 ft 403 kts 240°
2026-05-05 22:16 46.44712 -75.62740 37702 ft 401 kts 240°
2026-05-05 22:16 46.41833 -75.69669 37704 ft 401 kts 240°
2026-05-05 22:17 46.38952 -75.76580 37703 ft 400 kts 240°
2026-05-05 22:17 46.36066 -75.83479 37703 ft 400 kts 240°
2026-05-05 22:18 46.33183 -75.90358 37702 ft 399 kts 240°
2026-05-05 22:18 46.30316 -75.97189 37701 ft 399 kts 239°
2026-05-05 22:19 46.27429 -76.04044 37711 ft 398 kts 239°
2026-05-05 22:19 46.24546 -76.10878 37711 ft 398 kts 239°
2026-05-05 22:20 46.21666 -76.17686 37708 ft 398 kts 239°
2026-05-05 22:20 46.18777 -76.24500 37709 ft 397 kts 239°
2026-05-05 22:21 46.15887 -76.31291 37707 ft 398 kts 239°
2026-05-05 22:21 46.12986 -76.38098 37713 ft 398 kts 239°
2026-05-05 22:22 46.10077 -76.44902 37713 ft 399 kts 239°
2026-05-05 22:22 46.07167 -76.51709 37723 ft 399 kts 239°
2026-05-05 22:23 46.04242 -76.58515 37713 ft 400 kts 239°
2026-05-05 22:23 46.01314 -76.65315 37713 ft 401 kts 239°
2026-05-05 22:24 45.98390 -76.72095 37732 ft 402 kts 239°
2026-05-05 22:24 45.95421 -76.78959 37733 ft 402 kts 239°
2026-05-05 22:25 45.92479 -76.85742 37731 ft 402 kts 239°
2026-05-05 22:25 45.89519 -76.92554 37735 ft 402 kts 239°
2026-05-05 22:26 45.86545 -76.99368 37740 ft 403 kts 239°
2026-05-05 22:26 45.83573 -77.06181 37734 ft 402 kts 239°
2026-05-05 22:27 45.80602 -77.12980 37736 ft 402 kts 239°
2026-05-05 22:27 45.77624 -77.19756 37731 ft 402 kts 239°
2026-05-05 22:28 45.74642 -77.26523 37731 ft 401 kts 239°
2026-05-05 22:28 45.71679 -77.33246 37723 ft 401 kts 239°
2026-05-05 22:29 45.68681 -77.40040 37722 ft 401 kts 239°
2026-05-05 22:29 45.65710 -77.46735 37744 ft 401 kts 239°
2026-05-05 22:30 45.62718 -77.53468 37742 ft 402 kts 239°
2026-05-05 22:30 45.59723 -77.60213 37737 ft 402 kts 239°
2026-05-05 22:31 45.56714 -77.66950 37741 ft 402 kts 239°
2026-05-05 22:31 45.53697 -77.73681 37752 ft 402 kts 239°
2026-05-05 22:32 45.50682 -77.80408 37744 ft 403 kts 239°
2026-05-05 22:32 45.47654 -77.87145 37753 ft 404 kts 239°
2026-05-05 22:33 45.44620 -77.93878 37760 ft 404 kts 239°
2026-05-05 22:33 45.41590 -78.00591 37762 ft 403 kts 239°
2026-05-05 22:34 45.38549 -78.07302 37768 ft 403 kts 239°
2026-05-05 22:34 45.35511 -78.13994 37769 ft 403 kts 239°
2026-05-05 22:35 45.32486 -78.20634 37766 ft 402 kts 239°
2026-05-05 22:35 45.29450 -78.27305 37774 ft 402 kts 239°
2026-05-05 22:36 45.26406 -78.33970 37788 ft 403 kts 239°
2026-05-05 22:36 45.23348 -78.40649 37795 ft 404 kts 239°
2026-05-05 22:37 45.20276 -78.47334 37804 ft 405 kts 239°
2026-05-05 22:37 45.17198 -78.54021 37805 ft 405 kts 239°
2026-05-05 22:38 45.14113 -78.60719 37808 ft 406 kts 239°
2026-05-05 22:38 45.11022 -78.67404 37814 ft 406 kts 239°
2026-05-05 22:39 45.07911 -78.74109 37818 ft 407 kts 239°
2026-05-05 22:39 45.04831 -78.80749 37825 ft 406 kts 239°
2026-05-05 22:40 45.01734 -78.87400 37823 ft 406 kts 239°
2026-05-05 22:40 44.98625 -78.94063 37823 ft 406 kts 239°
2026-05-05 22:41 44.95499 -79.00728 37823 ft 407 kts 239°
2026-05-05 22:41 44.92378 -79.07389 37836 ft 406 kts 239°
2026-05-05 22:42 44.89255 -79.14033 37829 ft 406 kts 239°
2026-05-05 22:42 44.86125 -79.20671 37832 ft 406 kts 239°
2026-05-05 22:43 44.83001 -79.27305 37834 ft 406 kts 239°
2026-05-05 22:43 44.80397 -79.32796 37833 ft 406 kts 239°
2026-05-05 22:44 44.77262 -79.39410 37830 ft 406 kts 239°
2026-05-05 22:44 44.74120 -79.46023 37832 ft 406 kts 239°
2026-05-05 22:45 44.70974 -79.52627 37835 ft 407 kts 239°
2026-05-05 22:45 44.67816 -79.59244 37836 ft 407 kts 239°
2026-05-05 22:46 44.64658 -79.65844 37830 ft 407 kts 239°
2026-05-05 22:46 44.61516 -79.72398 37835 ft 407 kts 239°
2026-05-05 22:47 44.58304 -79.78954 37832 ft 408 kts 236°
2026-05-05 22:47 44.54539 -79.84965 37831 ft 411 kts 232°
2026-05-05 22:48 44.50679 -79.90870 37841 ft 410 kts 232°
2026-05-05 22:48 44.46831 -79.96781 37845 ft 411 kts 232°
2026-05-05 22:49 44.42980 -80.02690 37840 ft 410 kts 232°
2026-05-05 22:49 44.39127 -80.08586 37844 ft 411 kts 232°
2026-05-05 22:50 44.35296 -80.14438 37843 ft 411 kts 232°
2026-05-05 22:50 44.31407 -80.20364 37840 ft 411 kts 232°
2026-05-05 22:51 44.27539 -80.26245 37846 ft 411 kts 232°
2026-05-05 22:51 44.23679 -80.32102 37842 ft 411 kts 232°
2026-05-05 22:52 44.19806 -80.37966 37843 ft 411 kts 232°
2026-05-05 22:52 44.15934 -80.43816 37842 ft 411 kts 232°
2026-05-05 22:53 44.12089 -80.49615 37841 ft 410 kts 232°
2026-05-05 22:53 44.08215 -80.55445 37842 ft 410 kts 232°
2026-05-05 22:54 44.04337 -80.61268 37842 ft 410 kts 232°
2026-05-05 22:54 44.00455 -80.67085 37843 ft 410 kts 232°
2026-05-05 22:55 43.96545 -80.72933 37843 ft 411 kts 232°
2026-05-05 22:55 43.92656 -80.78738 37843 ft 411 kts 232°
2026-05-05 22:56 43.88764 -80.84533 37842 ft 410 kts 232°
2026-05-05 22:56 43.84873 -80.90318 37841 ft 410 kts 232°
2026-05-05 22:57 43.81008 -80.96051 37842 ft 410 kts 232°
2026-05-05 22:57 43.77120 -81.01805 37842 ft 409 kts 232°
2026-05-05 22:58 43.73232 -81.07548 37842 ft 409 kts 232°
2026-05-05 22:58 43.69341 -81.13284 37841 ft 409 kts 232°
2026-05-05 22:59 43.65451 -81.19008 37842 ft 409 kts 233°
2026-05-05 22:59 43.61558 -81.24722 37832 ft 408 kts 233°
2026-05-05 23:00 43.55692 -81.33312 37833 ft 408 kts 233°
2026-05-05 23:00 43.51826 -81.38959 37835 ft 408 kts 233°
2026-05-05 23:01 43.47931 -81.44639 37831 ft 408 kts 233°
2026-05-05 23:01 43.44035 -81.50307 37833 ft 407 kts 233°
2026-05-05 23:02 43.40141 -81.55962 37831 ft 407 kts 232°
2026-05-05 23:02 43.36237 -81.61617 37834 ft 407 kts 232°
2026-05-05 23:03 43.32337 -81.67261 37834 ft 407 kts 232°
2026-05-05 23:03 43.28428 -81.72901 37834 ft 408 kts 232°
2026-05-05 23:04 43.24516 -81.78534 37832 ft 408 kts 232°
2026-05-05 23:04 43.20599 -81.84166 37834 ft 408 kts 232°
2026-05-05 23:05 43.16678 -81.89794 37834 ft 408 kts 232°
2026-05-05 23:05 43.12753 -81.95415 37824 ft 408 kts 232°
2026-05-05 23:06 43.08827 -82.01029 37825 ft 409 kts 233°
2026-05-05 23:06 43.04891 -82.06639 37823 ft 409 kts 233°
2026-05-05 23:07 43.00952 -82.12244 37826 ft 408 kts 233°
2026-05-05 23:07 42.97017 -82.17832 37825 ft 408 kts 233°
2026-05-05 23:08 42.93084 -82.23411 37823 ft 408 kts 233°
2026-05-05 23:08 42.89141 -82.28994 37826 ft 408 kts 233°
2026-05-05 23:09 42.85193 -82.34565 37824 ft 409 kts 233°
2026-05-05 23:09 42.81242 -82.40133 37824 ft 409 kts 233°
2026-05-05 23:10 42.77285 -82.45699 37825 ft 409 kts 233°
2026-05-05 23:10 42.73325 -82.51262 37823 ft 409 kts 233°
2026-05-05 23:11 42.69357 -82.56821 37824 ft 410 kts 233°
2026-05-05 23:11 42.65388 -82.62375 37817 ft 410 kts 233°
2026-05-05 23:12 42.61411 -82.67922 37815 ft 410 kts 233°
2026-05-05 23:12 42.57433 -82.73464 37806 ft 410 kts 233°
2026-05-05 23:13 42.53446 -82.79009 37798 ft 410 kts 233°
2026-05-05 23:13 42.49460 -82.84543 37807 ft 410 kts 233°
2026-05-05 23:14 42.45470 -82.90068 37816 ft 409 kts 233°
2026-05-05 23:14 42.41485 -82.95576 37823 ft 410 kts 233°
2026-05-05 23:15 42.37490 -83.01086 37835 ft 411 kts 233°
2026-05-05 23:15 42.33510 -83.06568 37834 ft 411 kts 233°
2026-05-05 23:16 42.29496 -83.12081 37835 ft 412 kts 233°
2026-05-05 23:16 42.25472 -83.17602 37835 ft 412 kts 233°
2026-05-05 23:17 42.21445 -83.23116 37841 ft 413 kts 233°
2026-05-05 23:17 42.17410 -83.28634 37845 ft 413 kts 233°
2026-05-05 23:18 42.13369 -83.34146 37843 ft 414 kts 233°
2026-05-05 23:18 42.09322 -83.39655 37842 ft 414 kts 233°
2026-05-05 23:19 42.04908 -83.44752 37845 ft 424 kts 224°
2026-05-05 23:19 41.99854 -83.48986 37850 ft 435 kts 216°
2026-05-05 23:20 41.94343 -83.52487 37856 ft 439 kts 215°
2026-05-05 23:20 41.88794 -83.55929 37856 ft 440 kts 215°
2026-05-05 23:21 41.83239 -83.59391 37849 ft 440 kts 215°
2026-05-05 23:21 41.77688 -83.62867 37851 ft 441 kts 215°
2026-05-05 23:22 41.72137 -83.66345 37853 ft 441 kts 215°
2026-05-05 23:22 41.66582 -83.69820 37850 ft 441 kts 215°
2026-05-05 23:23 41.61027 -83.73289 37858 ft 441 kts 215°
2026-05-05 23:23 41.55470 -83.76752 37865 ft 440 kts 215°
2026-05-05 23:24 41.49915 -83.80206 37860 ft 441 kts 215°
2026-05-05 23:24 41.44363 -83.83652 37861 ft 440 kts 215°
2026-05-05 23:25 41.38798 -83.87101 37861 ft 440 kts 215°
2026-05-05 23:25 41.33241 -83.90536 37870 ft 440 kts 215°
2026-05-05 23:26 41.27679 -83.93969 37866 ft 441 kts 215°
2026-05-05 23:26 41.22114 -83.97398 37879 ft 442 kts 215°
2026-05-05 23:27 41.17472 -84.00254 37883 ft 442 kts 215°
2026-05-05 23:27 41.11848 -84.03706 37891 ft 443 kts 215°
2026-05-05 23:28 41.06283 -84.07117 37896 ft 444 kts 215°
2026-05-05 23:28 41.00671 -84.10547 37903 ft 445 kts 215°
2026-05-05 23:29 40.95046 -84.13979 37888 ft 446 kts 215°
2026-05-05 23:29 40.89412 -84.17416 37890 ft 446 kts 215°
2026-05-05 23:30 40.83757 -84.20854 37884 ft 448 kts 215°
2026-05-05 23:30 40.78083 -84.24299 37888 ft 448 kts 215°
2026-05-05 23:31 40.72409 -84.27736 37884 ft 449 kts 215°
2026-05-05 23:31 40.66729 -84.31171 37877 ft 449 kts 215°
2026-05-05 23:32 40.61048 -84.34601 37881 ft 449 kts 215°
2026-05-05 23:32 40.55371 -84.38012 37879 ft 449 kts 215°
2026-05-05 23:33 40.49695 -84.41428 37879 ft 449 kts 215°
2026-05-05 23:33 40.44001 -84.44844 37874 ft 450 kts 215°
2026-05-05 23:34 40.38299 -84.48267 37878 ft 451 kts 215°
2026-05-05 23:34 40.32597 -84.51677 37868 ft 450 kts 215°
2026-05-05 23:35 40.26897 -84.55079 37868 ft 450 kts 215°
2026-05-05 23:35 40.21192 -84.58470 37878 ft 450 kts 215°
2026-05-05 23:36 40.15527 -84.61842 37866 ft 451 kts 215°
2026-05-05 23:36 40.09814 -84.65235 37868 ft 452 kts 215°
2026-05-05 23:37 40.04092 -84.68620 37862 ft 452 kts 215°
2026-05-05 23:37 39.98367 -84.72005 37861 ft 452 kts 215°
2026-05-05 23:38 39.92641 -84.75383 37858 ft 452 kts 216°
2026-05-05 23:38 39.86899 -84.78774 37858 ft 455 kts 216°
2026-05-05 23:39 39.81116 -84.82176 37849 ft 456 kts 215°
2026-05-05 23:39 39.75319 -84.85577 37842 ft 458 kts 216°
2026-05-05 23:40 39.69507 -84.88983 37844 ft 459 kts 216°
2026-05-05 23:40 39.63689 -84.92386 37842 ft 459 kts 216°
2026-05-05 23:41 39.57868 -84.95787 37840 ft 459 kts 215°
2026-05-05 23:41 39.52041 -84.99176 37850 ft 459 kts 215°
2026-05-05 23:42 39.46224 -85.02556 37842 ft 458 kts 215°
2026-05-05 23:42 39.40409 -85.05931 37841 ft 458 kts 216°
2026-05-05 23:43 39.34594 -85.09302 37836 ft 458 kts 215°
2026-05-05 23:43 39.28771 -85.12671 37827 ft 459 kts 215°
2026-05-05 23:44 39.22906 -85.16056 37821 ft 459 kts 215°
2026-05-05 23:44 39.17104 -85.19401 37827 ft 460 kts 215°
2026-05-05 23:45 39.11270 -85.22757 37834 ft 460 kts 215°
2026-05-05 23:45 39.05414 -85.26114 37834 ft 460 kts 215°
2026-05-05 23:46 38.99462 -85.29525 37843 ft 461 kts 215°
2026-05-05 23:46 38.93604 -85.32879 37848 ft 461 kts 215°
2026-05-05 23:47 38.87744 -85.36223 37852 ft 461 kts 215°
2026-05-05 23:47 38.81882 -85.39564 37861 ft 461 kts 215°
2026-05-05 23:48 38.76017 -85.42903 37861 ft 462 kts 215°
2026-05-05 23:48 38.70144 -85.46240 37854 ft 462 kts 215°
2026-05-05 23:49 38.64275 -85.49567 37867 ft 462 kts 215°
2026-05-05 23:49 38.58399 -85.52890 37854 ft 462 kts 215°
2026-05-05 23:50 38.52517 -85.56213 37850 ft 462 kts 215°
2026-05-05 23:50 38.46635 -85.59530 37840 ft 463 kts 214°
2026-05-05 23:51 38.40741 -85.62846 37820 ft 463 kts 214°
2026-05-05 23:51 38.34853 -85.66154 37821 ft 462 kts 214°
2026-05-05 23:52 38.28965 -85.69457 37821 ft 462 kts 214°
2026-05-05 23:52 38.23084 -85.72750 37824 ft 462 kts 214°
2026-05-05 23:53 38.17196 -85.76040 37820 ft 462 kts 214°
2026-05-05 23:53 38.11305 -85.79326 37826 ft 462 kts 214°
2026-05-05 23:54 38.05421 -85.82603 37823 ft 462 kts 214°
2026-05-05 23:54 37.99528 -85.85880 37830 ft 462 kts 214°
2026-05-05 23:55 37.93637 -85.89149 37825 ft 463 kts 214°
2026-05-05 23:55 37.87728 -85.92420 37822 ft 463 kts 214°
2026-05-05 23:56 37.81831 -85.95683 37828 ft 463 kts 214°
2026-05-05 23:56 37.75924 -85.98941 37826 ft 463 kts 214°
2026-05-05 23:57 37.70024 -86.02193 37821 ft 463 kts 214°
2026-05-05 23:57 37.64114 -86.05447 37823 ft 463 kts 214°
2026-05-05 23:58 37.58210 -86.08692 37826 ft 464 kts 214°
2026-05-05 23:58 37.52290 -86.11936 37829 ft 464 kts 214°
2026-05-05 23:59 37.46375 -86.15170 37835 ft 464 kts 214°
2026-05-05 23:59 37.40458 -86.18401 37835 ft 464 kts 214°
2026-05-06 00:00 37.34530 -86.21634 37834 ft 464 kts 215°
2026-05-06 00:00 37.28595 -86.24866 37844 ft 465 kts 215°
2026-05-06 00:01 37.23664 -86.27546 37847 ft 465 kts 215°
2026-05-06 00:01 37.17723 -86.30771 37851 ft 466 kts 215°
2026-05-06 00:02 37.11768 -86.33998 37853 ft 467 kts 215°
2026-05-06 00:02 37.05798 -86.37227 37851 ft 467 kts 215°
2026-05-06 00:03 36.99831 -86.40448 37877 ft 467 kts 215°
2026-05-06 00:03 36.93858 -86.43679 37876 ft 468 kts 216°
2026-05-06 00:04 36.87901 -86.46959 37883 ft 468 kts 216°
2026-05-06 00:04 36.81953 -86.50246 37884 ft 468 kts 216°
2026-05-06 00:05 36.73003 -86.55170 37880 ft 469 kts 216°
2026-05-06 00:06 36.67018 -86.58451 37888 ft 469 kts 216°
2026-05-06 00:06 36.61044 -86.61720 37881 ft 470 kts 216°
2026-05-06 00:07 36.55050 -86.64992 37876 ft 470 kts 216°
2026-05-06 00:07 36.49030 -86.68275 37878 ft 470 kts 216°
2026-05-06 00:08 36.43034 -86.71539 37879 ft 470 kts 216°
2026-05-06 00:08 36.37356 -86.74624 37862 ft 470 kts 216°
2026-05-06 00:09 36.31372 -86.77871 37866 ft 469 kts 216°
2026-05-06 00:09 36.25387 -86.81111 37861 ft 469 kts 216°
2026-05-06 00:10 36.19374 -86.84363 37858 ft 468 kts 216°
2026-05-06 00:10 36.13409 -86.87583 37852 ft 468 kts 216°
2026-05-06 00:11 36.07443 -86.90800 37845 ft 467 kts 216°
2026-05-06 00:11 36.01492 -86.94001 37853 ft 467 kts 216°
2026-05-06 00:12 35.95541 -86.97197 37853 ft 467 kts 216°
2026-05-06 00:12 35.89584 -87.00397 37861 ft 469 kts 216°
2026-05-06 00:13 35.83595 -87.03603 37879 ft 469 kts 216°
2026-05-06 00:13 35.77617 -87.06630 37853 ft 457 kts 216°
2026-05-06 00:14 35.71808 -87.09742 37864 ft 455 kts 218°
2026-05-06 00:14 35.66029 -87.12932 37868 ft 457 kts 218°
2026-05-06 00:15 35.60188 -87.16086 37860 ft 459 kts 217°
2026-05-06 00:15 35.54339 -87.19197 37859 ft 459 kts 217°
2026-05-06 00:16 35.48478 -87.22298 37859 ft 458 kts 217°
2026-05-06 00:16 35.42644 -87.25381 37866 ft 456 kts 217°
2026-05-06 00:17 35.36817 -87.28458 37889 ft 456 kts 217°
2026-05-06 00:17 35.30948 -87.31560 38200 ft 457 kts 217°
2026-05-06 00:17 35.28071 -87.33075 38430 ft 456 kts 217°
2026-05-06 00:18 35.25156 -87.34607 38662 ft 454 kts 217°
2026-05-06 00:18 35.22212 -87.36155 38878 ft 454 kts 217°
2026-05-06 00:18 35.19320 -87.37677 39063 ft 453 kts 217°
2026-05-06 00:18 35.16410 -87.39208 39228 ft 453 kts 217°
2026-05-06 00:19 35.13516 -87.40729 39369 ft 454 kts 217°
2026-05-06 00:19 35.10609 -87.42255 39522 ft 454 kts 217°